Location: Canyon Rim
(40.8777°N, 111.8641°W)
Time: 21:42:17
(UTC+00:00)

JY1SAT - Visible Passes

Search period start: 24 June 2021 00:00
Search period end: 04 July 2021 00:00
Orbit: 568 x 591 km, 97.7° (Epoch: 23 June)

Date Brightness Start Highest point End Pass type
(mag) Time Alt. Az. Time Alt. Az. Time Alt. Az.
24 Jun ? 03:55:10 10° E 03:56:58 13° ENE 03:58:45 10° NE visible
24 Jun ? 05:30:35 38° SSW 05:31:48 53° W 05:35:47 10° NNW visible
25 Jun ? 03:59:31 10° E 04:01:42 14° ENE 04:03:54 10° NNE visible
25 Jun ? 05:35:26 35° SW 05:36:37 46° W 05:40:33 10° NNW visible
26 Jun ? 04:03:58 10° ESE 04:06:28 16° ENE 04:08:58 10° NNE visible
26 Jun ? 05:40:18 32° SW 05:41:26 40° W 05:45:18 10° NNW visible
27 Jun ? 04:08:50 12° ESE 04:11:13 18° ENE 04:13:59 10° NNE visible
27 Jun ? 05:45:09 30° SW 05:46:16 35° W 05:50:02 10° NNW visible
28 Jun ? 04:13:41 13° ESE 04:15:59 20° ENE 04:18:59 10° NNE visible
28 Jun ? 05:50:01 27° SW 05:51:05 31° W 05:54:44 10° NNW visible
29 Jun ? 04:18:33 15° ESE 04:20:45 22° ENE 04:23:56 10° NNE visible
29 Jun ? 05:54:53 24° WSW 05:55:55 27° W 05:59:26 10° NW visible
30 Jun ? 04:23:25 17° ESE 04:25:30 25° ENE 04:28:52 10° NNE visible
30 Jun ? 05:59:44 22° WSW 06:00:45 24° W 06:04:06 10° NW visible
01 Jul ? 04:28:16 19° ESE 04:30:16 28° ENE 04:33:47 10° N visible
01 Jul ? 06:04:36 20° WSW 06:05:35 22° W 06:08:46 10° NW visible
02 Jul ? 04:33:08 21° ESE 04:35:03 32° ENE 04:38:41 10° N visible
02 Jul ? 06:09:27 18° WSW 06:10:25 19° W 06:13:23 10° NW visible
03 Jul ? 04:38:00 24° ESE 04:39:49 36° ENE 04:43:34 10° N visible
03 Jul ? 06:14:19 16° WSW 06:15:15 17° W 06:17:57 10° NW visible
